Weather observations for the past three days for
Deering, Deering/New Airport
Imperial (Metric)
Date Time (akdt) Wind (mph) Vis. (mi.) Weather Sky Cond. Temperature (ºF) Relative Humidity Wind Chill (°F) Heat Index (°F) Pressure Precipitation (in)
Air Dwpt 6 hour altimeter (in) sea level (mb) 1 hr 3 hr 6 hr
Max. Min.
15 01:53 Calm 10.00 Mostly Cloudy BKN043 46 42.1 86% 29.52 999.5
15 00:53 S 7 10.00 A Few Clouds FEW045 48.9 42.1 77% 46 29.5 998.9
14 23:53 SE 13 10.00 A Few Clouds FEW044 53.1 43 69% 29.47 998.1
14 22:53 SE 13 10.00 Fair CLR 54 42.1 64% 29.45 997.4
14 21:53 SE 12 10.00 A Few Clouds FEW039 57.9 43 63 57.9 58% 29.43 996.7
14 20:53 SE 10 10.00 Fair CLR 57.9 42.1 56% 29.42 996.2
14 19:53 S 15 10.00 Partly Cloudy SCT047 60.1 43 53% 29.4 995.5
14 18:53 S 16 G 25 10.00 Fair CLR 62.1 46.9 58% 29.37 994.6
14 17:53 S 20 G 29 10.00 A Few Clouds FEW060 60.1 48 65% 29.35 994.0
14 16:53 SE 24 G 31 10.00 Mostly Cloudy and Breezy BKN065 60.1 48.9 67% 29.34 993.6
14 15:53 SE 14 G 18 10.00 Overcast FEW016 BKN030 OVC046 57.9 54 60.1 50 87% 29.34 993.4 0.02
14 14:53 NE 7 10.00 Mostly Cloudy FEW011 BKN019 BKN025 59 55 87% 29.32 992.9
14 13:53 E 5 10.00 Overcast OVC003 55.9 53.1 90% 29.32 992.8
14 12:53 NW 7 10.00 Light Rain OVC003 53.1 52 96% 29.31 992.6 0.02
14 10:53 W 10 5.00 Light Rain Fog/Mist SCT009 OVC016 51.1 50 96% 29.32 993.0
14 09:53 W 14 4.00 Light Rain Fog/Mist FEW005 OVC020 50 48.9 51.1 48 96% 45 29.32 993.0 0.01 0.25
14 08:53 W 15 10.00 Light Rain FEW005 OVC024 50 48.9 96% 45 29.34 993.4 0.02
14 07:53 W 15 10.00 Light Rain FEW007 BKN055 OVC070 50 48 93% 45 29.35 993.8 0.01
14 06:53 W 14 9.00 Light Rain FEW009 BKN055 OVC070 48.9 46.9 93% 44 29.37 994.4 0.11 0.21
14 05:53 W 13 7.00 Light Rain FEW007 BKN020 OVC050 48.9 46.9 93% 44 29.38 995.1 0.06
14 04:53 SW 5 8.00 Light Rain OVC055 50 48 93% 49 29.4 995.7 0.04
14 03:53 S 5 10.00 Light Rain OVC060 50 46.9 55.9 48.9 89% 49 29.41 996.1
14 02:53 W 6 10.00 Light Rain SCT043 BKN050 OVC065 50 46.9 89% 48 29.43 996.6
14 01:53 S 8 10.00 Overcast OVC060 50 45 83% 47 29.44 996.9
14 00:53 NW 6 10.00 Mostly Cloudy FEW049 BKN110 52 46 80% 29.45 997.1
13 23:53 N 3 10.00 Partly Cloudy FEW070 SCT110 53.1 48 83% 29.45 997.2
13 22:53 N 8 10.00 Partly Cloudy SCT075 55 46 72% 29.46 997.5
13 21:53 NE 8 10.00 Overcast OVC075 55 46 63 54 72% 29.47 997.8
13 20:53 NE 7 10.00 A Few Clouds FEW065 55.9 46 70% 29.47 998.0
13 19:53 E 6 10.00 Fair CLR 62.1 43 50% 29.47 997.8
13 18:53 E 12 G 18 10.00 Partly Cloudy SCT070 61 44.1 54% 29.47 998.0
13 17:53 SE 10 10.00 Partly Cloudy SCT060 62.1 44.1 52% 29.47 997.9
13 16:53 SE 16 G 21 10.00 Partly Cloudy FEW048 SCT070 60.1 43 53% 29.47 998.0
13 15:53 S 13 G 18 10.00 Overcast SCT036 BKN047 OVC070 60.1 46 61 55 60% 29.47 998.0
13 13:53 SE 16 10.00 Overcast BKN037 BKN043 OVC049 60.1 48 65% 29.45 997.4
13 12:53 E 21 10.00 Overcast and Breezy FEW025 BKN050 OVC120 57.9 48.9 72% 29.44 996.9
13 11:53 E 22 G 35 10.00 Overcast and Breezy FEW020 OVC100 57 48 72% 29.43 996.5
13 10:53 E 23 G 32 10.00 Overcast and Breezy SCT024 OVC100 55 46.9 74% 29.43 996.4
13 09:53 E 16 G 26 10.00 Overcast BKN024 OVC029 54 48 54 51.1 80% 29.42 996.4
13 08:53 E 17 G 28 10.00 Mostly Cloudy SCT019 BKN039 53.1 46.9 80% 29.41 996.0
13 06:53 E 16 10.00 Partly Cloudy SCT090 52 48.9 89% 29.4 995.7
13 05:53 E 13 10.00 Overcast SCT055 BKN070 OVC080 52 48 86% 29.4 995.6
13 04:53 E 15 10.00 Mostly Cloudy BKN060 52 48.9 89% 29.4 995.6
13 03:53 E 12 10.00 Mostly Cloudy SCT060 BKN090 52 48.9 54 51.1 89% 29.4 995.7 0.05
13 02:53 E 10 10.00 Overcast OVC060 52 50 93% 29.42 996.1
13 01:53 E 12 10.00 Light Rain OVC075 52 50 93% 29.42 996.4
13 00:53 E 8 10.00 Overcast FEW048 BKN060 OVC085 52 51.1 97% 29.44 996.9 0.01 0.05
12 23:53 NE 12 10.00 Light Rain SCT049 BKN060 OVC085 53.1 51.1 93% 29.45 997.4 0.03
12 22:53 NE 9 10.00 Light Rain FEW047 OVC060 53.1 51.1 93% 29.46 997.7 0.01
12 21:53 E 7 10.00 Light Rain OVC070 54 51.1 59 53.1 90% 29.48 998.3 0.01 0.2
12 19:53 E 6 9.00 Light Rain FEW031 SCT043 OVC070 55.9 54 93% 29.5 999.1 0.13
12 18:53 E 7 10.00 Light Rain SCT055 SCT070 BKN085 59 51.1 75% 29.52 999.6 0.04
12 17:53 NE 8 10.00 Light Rain OVC065 59 51.1 75% 29.54 1000.3
12 16:53 NE 13 10.00 Light Rain FEW044 OVC070 57 51.1 81% 29.56 1001.0 0.04
12 15:53 NE 9 9.00 Light Rain SCT060 BKN075 55 48 64 55 77% 29.59 1002.1
12 14:53 NE 10 10.00 Mostly Cloudy FEW070 BKN090 59 48.9 69% 29.61 1002.8
12 13:53 NE 10 10.00 Overcast SCT065 OVC095 62.1 48 60% 29.64 1003.6
12 12:53 E 9 10.00 Mostly Cloudy BKN100 63 46 54% 29.66 1004.4
12 11:53 E 13 10.00 Overcast OVC100 61 46.9 60% 29.67 1004.8
12 09:53 E 8 10.00 Mostly Cloudy BKN120 57.9 48.9 61 51.1 72% 29.69 1005.4
12 08:53 E 9 10.00 Fair CLR 60.1 48.9 67% 29.7 1005.7
12 07:53 N 5 10.00 Mostly Cloudy BKN085 55 48.9 80% 29.71 1006.0
12 06:53 NE 5 10.00 Fair CLR 53.1 46.9 80% 29.72 1006.5
12 05:53 Calm 10.00 Overcast BKN065 OVC110 54 48 80% 29.73 1006.8
12 04:53 N 6 10.00 Overcast OVC080 53.1 46 77% 29.74 1007.0
12 03:53 E 3 10.00 Overcast FEW049 SCT065 OVC080 55 46.9 64 48.9 74% 29.76 1007.6
12 02:53 N 3 10.00 Fair CLR 48.9 45 86% 29.77 1008.0
Date Time (akdt) Wind (mph) Vis. (mi.) Weather Sky Cond. Air Dwpt Max. Min. Relative Humidity Wind Chill (°F) Heat Index (°F) altimeter (in) sea level (mb) 1 hr 3 hr 6 hr
6 hour
Temperature (ºF) Pressure Precipitation (in)